カタログに戻る

ONEWEB-0245

運用中通信PO
NORAD 48778·PAYLOAD·🇬🇧 United Kingdom

打ち上げ May 28, 2021 から Vostochny Cosmodrome

Loading…

次のパス (今後24時間)

TLE

最新Source: CelesTrak SupGP

元期: Sep 14, 2026, 19:44 UTC

1 48778C 21045M   26257.82275880  .00002912  00000+0  77437-2 0  2578
2 48778  87.8983 241.3249 0001852  82.9706 317.8710 13.15543525    14

AllMySatでONEWEB-0245をリアルタイム追跡

Download on the App Store